owner,sensor,date,latitude,longitude,vertical_datum,sea_water_practical_salinity,qcFlag 
SCCF RECON,ioos:station:SCCF:11:1,2019-04-01T04:00:00Z,26.4679,-82.0631,2.01,29.04,1111122 
SCCF RECON,ioos:station:SCCF:11:1,2019-04-01T05:00:00Z,26.4679,-82.0631,1.95,28.98,1111122 
SCCF RECON,ioos:station:SCCF:11:1,2019-04-01T06:00:00Z,26.4679,-82.0631,1.831,28.9,1111122 
SCCF RECON,ioos:station:SCCF:11:1,2019-04-01T07:00:00Z,26.4679,-82.0631,1.71,28.91,1111122 
SCCF RECON,ioos:station:SCCF:11:1,2019-04-01T08:00:00Z,26.4679,-82.0631,1.581,28.97,1111122 
SCCF RECON,ioos:station:SCCF:11:1,2019-04-01T09:00:00Z,26.4679,-82.0631,1.495,29.01,1111122 
SCCF RECON,ioos:station:SCCF:11:1,2019-04-01T10:00:00Z,26.4679,-82.0631,1.43,29.04,1111122 
SCCF RECON,ioos:station:SCCF:11:1,2019-04-01T11:00:00Z,26.4679,-82.0631,1.45,29.0,1111122 
SCCF RECON,ioos:station:SCCF:11:1,2019-04-01T12:00:00Z,26.4679,-82.0631,1.55,29.01,1111122 
SCCF RECON,ioos:station:SCCF:11:1,2019-04-01T13:00:00Z,26.4679,-82.0631,1.68,29.61,1111122 
SCCF RECON,ioos:station:SCCF:11:1,2019-04-01T14:00:00Z,26.4679,-82.0631,1.787,28.53,1111122 
SCCF RECON,ioos:station:SCCF:11:1,2019-04-01T15:00:00Z,26.4679,-82.0631,1.879,28.98,1111122 
SCCF RECON,ioos:station:SCCF:11:1,2019-04-01T16:00:00Z,26.4679,-82.0631,1.96,29.03,1111122 
SCCF RECON,ioos:station:SCCF:11:1,2019-04-01T17:00:00Z,26.4679,-82.0631,2.019,28.95,1111122 
SCCF RECON,ioos:station:SCCF:11:1,2019-04-01T18:00:00Z,26.4679,-82.0631,2.016,28.97,1111122 
SCCF RECON,ioos:station:SCCF:11:1,2019-04-01T19:00:00Z,26.4679,-82.0631,1.936,28.93,1111122 
SCCF RECON,ioos:station:SCCF:11:1,2019-04-01T20:00:00Z,26.4679,-82.0631,1.811,28.96,1111122 
SCCF RECON,ioos:station:SCCF:11:1,2019-04-01T21:00:00Z,26.4679,-82.0631,1.731,28.99,1111122 
SCCF RECON,ioos:station:SCCF:11:1,2019-04-01T22:00:00Z,26.4679,-82.0631,1.68,29.01,1111122 
SCCF RECON,ioos:station:SCCF:11:1,2019-04-01T23:00:00Z,26.4679,-82.0631,1.672,29.03,1111122 
SCCF RECON,ioos:station:SCCF:11:1,2019-04-02T04:00:00Z,26.4679,-82.0631,2.075,29.54,1111122 
SCCF RECON,ioos:station:SCCF:11:1,2019-04-02T05:00:00Z,26.4679,-82.0631,2.049,29.48,1111122 
SCCF RECON,ioos:station:SCCF:11:1,2019-04-02T06:00:00Z,26.4679,-82.0631,1.99,29.53,1111122 
SCCF RECON,ioos:station:SCCF:11:1,2019-04-02T07:00:00Z,26.4679,-82.0631,1.883,29.29,1111122 
SCCF RECON,ioos:station:SCCF:11:1,2019-04-02T08:00:00Z,26.4679,-82.0631,1.75,29.33,1111122 
SCCF RECON,ioos:station:SCCF:11:1,2019-04-02T09:00:00Z,26.4679,-82.0631,1.64,29.33,1111122 
SCCF RECON,ioos:station:SCCF:11:1,2019-04-02T10:00:00Z,26.4679,-82.0631,1.54,29.31,1111122 
SCCF RECON,ioos:station:SCCF:11:1,2019-04-02T11:00:00Z,26.4679,-82.0631,1.481,29.32,1111122 
SCCF RECON,ioos:station:SCCF:11:1,2019-04-02T12:00:00Z,26.4679,-82.0631,1.555,29.3,1111122 
SCCF RECON,ioos:station:SCCF:11:1,2019-04-02T13:00:00Z,26.4679,-82.0631,1.73,29.88,1111122 
SCCF RECON,ioos:station:SCCF:11:1,2019-04-02T14:00:00Z,26.4679,-82.0631,1.869,29.91,1111122 
SCCF RECON,ioos:station:SCCF:11:1,2019-04-02T16:00:00Z,26.4679,-82.0631,2.03,30.1,1111122 
SCCF RECON,ioos:station:SCCF:11:1,2019-04-02T17:00:00Z,26.4679,-82.0631,2.06,30.06,1111122 
SCCF RECON,ioos:station:SCCF:11:1,2019-04-02T18:00:00Z,26.4679,-82.0631,2.05,30.28,1111122 
SCCF RECON,ioos:station:SCCF:11:1,2019-04-02T19:00:00Z,26.4679,-82.0631,1.979,29.83,1111122 
SCCF RECON,ioos:station:SCCF:11:1,2019-04-02T20:00:00Z,26.4679,-82.0631,1.871,29.66,1111122 
SCCF RECON,ioos:station:SCCF:11:1,2019-04-02T21:00:00Z,26.4679,-82.0631,1.773,29.55,1111122 
SCCF RECON,ioos:station:SCCF:11:1,2019-04-02T22:00:00Z,26.4679,-82.0631,1.7,29.55,1111122 
SCCF RECON,ioos:station:SCCF:11:1,2019-04-02T23:00:00Z,26.4679,-82.0631,1.66,29.48,1111122 
SCCF RECON,ioos:station:SCCF:11:1,2019-04-03T04:00:00Z,26.4679,-82.0631,2.049,29.9,1111122 
SCCF RECON,ioos:station:SCCF:11:1,2019-04-03T05:00:00Z,26.4679,-82.0631,2.041,29.77,1111122 
SCCF RECON,ioos:station:SCCF:11:1,2019-04-03T06:00:00Z,26.4679,-82.0631,1.974,29.74,1111122 
SCCF RECON,ioos:station:SCCF:11:1,2019-04-03T07:00:00Z,26.4679,-82.0631,1.87,29.7,1111122 
SCCF RECON,ioos:station:SCCF:11:1,2019-04-03T08:00:00Z,26.4679,-82.0631,1.73,29.66,1111122 
SCCF RECON,ioos:station:SCCF:11:1,2019-04-03T09:00:00Z,26.4679,-82.0631,1.628,29.61,1111122 
SCCF RECON,ioos:station:SCCF:11:1,2019-04-03T10:00:00Z,26.4679,-82.0631,1.539,29.61,1111122 
SCCF RECON,ioos:station:SCCF:11:1,2019-04-03T11:00:00Z,26.4679,-82.0631,1.45,29.6,1111122 
SCCF RECON,ioos:station:SCCF:11:1,2019-04-03T12:00:00Z,26.4679,-82.0631,1.426,29.61,1111122 
SCCF RECON,ioos:station:SCCF:11:1,2019-04-03T13:00:00Z,26.4679,-82.0631,1.5,29.62,1111122 
SCCF RECON,ioos:station:SCCF:11:1,2019-04-03T14:00:00Z,26.4679,-82.0631,1.658,29.69,1111122 
SCCF RECON,ioos:station:SCCF:11:1,2019-04-03T15:00:00Z,26.4679,-82.0631,1.799,29.66,1111122 
SCCF RECON,ioos:station:SCCF:11:1,2019-04-03T16:00:00Z,26.4679,-82.0631,1.901,29.65,1111122 
SCCF RECON,ioos:station:SCCF:11:1,2019-04-03T17:00:00Z,26.4679,-82.0631,1.969,29.68,1111122 
SCCF RECON,ioos:station:SCCF:11:1,2019-04-03T18:00:00Z,26.4679,-82.0631,1.965,29.68,1111122 
SCCF RECON,ioos:station:SCCF:11:1,2019-04-03T19:00:00Z,26.4679,-82.0631,1.91,29.66,1111122 
SCCF RECON,ioos:station:SCCF:11:1,2019-04-03T20:00:00Z,26.4679,-82.0631,1.793,29.62,1111122 
SCCF RECON,ioos:station:SCCF:11:1,2019-04-03T21:00:00Z,26.4679,-82.0631,1.684,29.58,1111122 
SCCF RECON,ioos:station:SCCF:11:1,2019-04-03T22:00:00Z,26.4679,-82.0631,1.609,29.58,1111122 
SCCF RECON,ioos:station:SCCF:11:1,2019-04-03T23:00:00Z,26.4679,-82.0631,1.551,29.59,1111122 
SCCF RECON,ioos:station:SCCF:11:1,2019-04-04T04:00:00Z,26.4679,-82.0631,1.949,29.12,1111122 
SCCF RECON,ioos:station:SCCF:11:1,2019-04-04T05:00:00Z,26.4679,-82.0631,2.0,29.26,1111122 
SCCF RECON,ioos:station:SCCF:11:1,2019-04-04T06:00:00Z,26.4679,-82.0631,2.0,29.3,1111122 
SCCF RECON,ioos:station:SCCF:11:1,2019-04-04T07:00:00Z,26.4679,-82.0631,1.912,29.22,1111122 
SCCF RECON,ioos:station:SCCF:11:1,2019-04-04T08:00:00Z,26.4679,-82.0631,1.781,29.31,1111122 
SCCF RECON,ioos:station:SCCF:11:1,2019-04-04T09:00:00Z,26.4679,-82.0631,1.664,29.48,1111122 
SCCF RECON,ioos:station:SCCF:11:1,2019-04-04T10:00:00Z,26.4679,-82.0631,1.552,29.55,1111122 
SCCF RECON,ioos:station:SCCF:11:1,2019-04-04T11:00:00Z,26.4679,-82.0631,1.471,29.56,1111122 
SCCF RECON,ioos:station:SCCF:11:1,2019-04-04T12:00:00Z,26.4679,-82.0631,1.47,29.59,1111122 
SCCF RECON,ioos:station:SCCF:11:1,2019-04-04T13:00:00Z,26.4679,-82.0631,1.561,29.53,1111122 
SCCF RECON,ioos:station:SCCF:11:1,2019-04-04T14:00:00Z,26.4679,-82.0631,1.71,29.48,1111122 
SCCF RECON,ioos:station:SCCF:11:1,2019-04-04T15:00:00Z,26.4679,-82.0631,1.821,29.43,1111122 
SCCF RECON,ioos:station:SCCF:11:1,2019-04-04T16:00:00Z,26.4679,-82.0631,1.91,29.25,1111122 
SCCF RECON,ioos:station:SCCF:11:1,2019-04-04T17:00:00Z,26.4679,-82.0631,1.995,29.3,1111122 
SCCF RECON,ioos:station:SCCF:11:1,2019-04-04T18:00:00Z,26.4679,-82.0631,2.031,29.93,1111122 
SCCF RECON,ioos:station:SCCF:11:1,2019-04-04T19:00:00Z,26.4679,-82.0631,2.0,30.22,1111122 
SCCF RECON,ioos:station:SCCF:11:1,2019-04-04T20:00:00Z,26.4679,-82.0631,1.875,29.27,1111122 
SCCF RECON,ioos:station:SCCF:11:1,2019-04-04T21:00:00Z,26.4679,-82.0631,1.731,29.31,1111122 
SCCF RECON,ioos:station:SCCF:11:1,2019-04-04T22:00:00Z,26.4679,-82.0631,1.641,29.41,1111122 
SCCF RECON,ioos:station:SCCF:11:1,2019-04-04T23:00:00Z,26.4679,-82.0631,1.56,29.44,1111122 
SCCF RECON,ioos:station:SCCF:11:1,2019-04-05T04:00:00Z,26.4679,-82.0631,1.92,30.05,1111122 
SCCF RECON,ioos:station:SCCF:11:1,2019-04-05T05:00:00Z,26.4679,-82.0631,2.021,30.35,1111122 
SCCF RECON,ioos:station:SCCF:11:1,2019-04-05T06:00:00Z,26.4679,-82.0631,2.08,30.81,1111122 
SCCF RECON,ioos:station:SCCF:11:1,2019-04-05T07:00:00Z,26.4679,-82.0631,2.04,30.96,1111122 
SCCF RECON,ioos:station:SCCF:11:1,2019-04-05T08:00:00Z,26.4679,-82.0631,1.902,29.95,1111122 
SCCF RECON,ioos:station:SCCF:11:1,2019-04-05T09:00:00Z,26.4679,-82.0631,1.75,29.85,1111122 
SCCF RECON,ioos:station:SCCF:11:1,2019-04-05T10:00:00Z,26.4679,-82.0631,1.642,29.79,1111122 
SCCF RECON,ioos:station:SCCF:11:1,2019-04-05T11:00:00Z,26.4679,-82.0631,1.55,29.77,1111122 
SCCF RECON,ioos:station:SCCF:11:1,2019-04-05T12:00:00Z,26.4679,-82.0631,1.526,29.72,1111122 
SCCF RECON,ioos:station:SCCF:11:1,2019-04-05T13:00:00Z,26.4679,-82.0631,1.58,29.68,1111122 
SCCF RECON,ioos:station:SCCF:11:1,2019-04-05T14:00:00Z,26.4679,-82.0631,1.71,30.57,1111122 
SCCF RECON,ioos:station:SCCF:11:1,2019-04-05T15:00:00Z,26.4679,-82.0631,1.844,30.56,1111122 
SCCF RECON,ioos:station:SCCF:11:1,2019-04-05T16:00:00Z,26.4679,-82.0631,1.974,30.58,1111122 
SCCF RECON,ioos:station:SCCF:11:1,2019-04-05T17:00:00Z,26.4679,-82.0631,2.045,31.17,1111122 
SCCF RECON,ioos:station:SCCF:11:1,2019-04-05T18:00:00Z,26.4679,-82.0631,2.083,31.39,1111122 
SCCF RECON,ioos:station:SCCF:11:1,2019-04-05T19:00:00Z,26.4679,-82.0631,2.067,31.58,1111122 
SCCF RECON,ioos:station:SCCF:11:1,2019-04-05T20:00:00Z,26.4679,-82.0631,2.0,31.58,1111122 
SCCF RECON,ioos:station:SCCF:11:1,2019-04-05T21:00:00Z,26.4679,-82.0631,1.86,30.32,1111122 
SCCF RECON,ioos:station:SCCF:11:1,2019-04-05T22:00:00Z,26.4679,-82.0631,1.724,30.24,1111122 
SCCF RECON,ioos:station:SCCF:11:1,2019-04-05T23:00:00Z,26.4679,-82.0631,1.61,30.11,1111122 
SCCF RECON,ioos:station:SCCF:11:1,2019-04-06T04:00:00Z,26.4679,-82.0631,1.96,31.55,1111122 
SCCF RECON,ioos:station:SCCF:11:1,2019-04-06T05:00:00Z,26.4679,-82.0631,2.056,31.98,1111122 
SCCF RECON,ioos:station:SCCF:11:1,2019-04-06T06:00:00Z,26.4679,-82.0631,2.12,31.95,1111122 
SCCF RECON,ioos:station:SCCF:11:1,2019-04-06T07:00:00Z,26.4679,-82.0631,2.119,32.09,1111122 
SCCF RECON,ioos:station:SCCF:11:1,2019-04-06T08:00:00Z,26.4679,-82.0631,2.042,31.67,1111122 
SCCF RECON,ioos:station:SCCF:11:1,2019-04-06T09:00:00Z,26.4679,-82.0631,1.906,30.89,1111122 
SCCF RECON,ioos:station:SCCF:11:1,2019-04-06T10:00:00Z,26.4679,-82.0631,1.79,30.7,1111122 
SCCF RECON,ioos:station:SCCF:11:1,2019-04-06T11:00:00Z,26.4679,-82.0631,1.709,30.54,1111122 
SCCF RECON,ioos:station:SCCF:11:1,2019-04-06T12:00:00Z,26.4679,-82.0631,1.629,30.48,1111122 
SCCF RECON,ioos:station:SCCF:11:1,2019-04-06T13:00:00Z,26.4679,-82.0631,1.58,30.36,1111122 
SCCF RECON,ioos:station:SCCF:11:1,2019-04-06T14:00:00Z,26.4679,-82.0631,1.659,30.44,1111122 
SCCF RECON,ioos:station:SCCF:11:1,2019-04-06T15:00:00Z,26.4679,-82.0631,1.814,31.64,1111122 
SCCF RECON,ioos:station:SCCF:11:1,2019-04-06T16:00:00Z,26.4679,-82.0631,1.95,31.52,1111122 
SCCF RECON,ioos:station:SCCF:11:1,2019-04-06T17:00:00Z,26.4679,-82.0631,2.031,31.61,1111122 
SCCF RECON,ioos:station:SCCF:11:1,2019-04-06T18:00:00Z,26.4679,-82.0631,2.071,31.75,1111122 
SCCF RECON,ioos:station:SCCF:11:1,2019-04-06T19:00:00Z,26.4679,-82.0631,2.059,31.75,1111122 
SCCF RECON,ioos:station:SCCF:11:1,2019-04-06T20:00:00Z,26.4679,-82.0631,1.969,31.23,1111122 
SCCF RECON,ioos:station:SCCF:11:1,2019-04-06T21:00:00Z,26.4679,-82.0631,1.83,30.9,1111122 
SCCF RECON,ioos:station:SCCF:11:1,2019-04-06T22:00:00Z,26.4679,-82.0631,1.69,30.74,1111122 
SCCF RECON,ioos:station:SCCF:11:1,2019-04-06T23:00:00Z,26.4679,-82.0631,1.579,30.64,1111122 
SCCF RECON,ioos:station:SCCF:11:1,2019-04-07T04:00:00Z,26.4679,-82.0631,1.746,31.26,1111122 
SCCF RECON,ioos:station:SCCF:11:1,2019-04-07T05:00:00Z,26.4679,-82.0631,1.87,31.08,1111122 
SCCF RECON,ioos:station:SCCF:11:1,2019-04-07T06:00:00Z,26.4679,-82.0631,1.971,31.43,1111122 
SCCF RECON,ioos:station:SCCF:11:1,2019-04-07T07:00:00Z,26.4679,-82.0631,2.021,31.57,1111122 
SCCF RECON,ioos:station:SCCF:11:1,2019-04-07T08:00:00Z,26.4679,-82.0631,2.0,31.6,1111122 
SCCF RECON,ioos:station:SCCF:11:1,2019-04-07T09:00:00Z,26.4679,-82.0631,1.91,31.15,1111122 
SCCF RECON,ioos:station:SCCF:11:1,2019-04-07T10:00:00Z,26.4679,-82.0631,1.812,31.03,1111122 
SCCF RECON,ioos:station:SCCF:11:1,2019-04-07T11:00:00Z,26.4679,-82.0631,1.74,30.89,1111122 
SCCF RECON,ioos:station:SCCF:11:1,2019-04-07T12:00:00Z,26.4679,-82.0631,1.685,30.77,1111122 
SCCF RECON,ioos:station:SCCF:11:1,2019-04-07T13:00:00Z,26.4679,-82.0631,1.649,30.62,1111122 
SCCF RECON,ioos:station:SCCF:11:1,2019-04-07T14:00:00Z,26.4679,-82.0631,1.676,30.69,1111122 
SCCF RECON,ioos:station:SCCF:11:1,2019-04-07T15:00:00Z,26.4679,-82.0631,1.811,31.42,1111122 
SCCF RECON,ioos:station:SCCF:11:1,2019-04-07T16:00:00Z,26.4679,-82.0631,1.954,31.76,1111122 
SCCF RECON,ioos:station:SCCF:11:1,2019-04-07T17:00:00Z,26.4679,-82.0631,2.05,31.94,1111122 
SCCF RECON,ioos:station:SCCF:11:1,2019-04-07T18:00:00Z,26.4679,-82.0631,2.12,32.18,1111122 
SCCF RECON,ioos:station:SCCF:11:1,2019-04-07T19:00:00Z,26.4679,-82.0631,2.131,32.54,1111122 
SCCF RECON,ioos:station:SCCF:11:1,2019-04-07T20:00:00Z,26.4679,-82.0631,2.07,32.38,1111122 
SCCF RECON,ioos:station:SCCF:11:1,2019-04-07T21:00:00Z,26.4679,-82.0631,1.981,31.31,1111122 
SCCF RECON,ioos:station:SCCF:11:1,2019-04-07T22:00:00Z,26.4679,-82.0631,1.828,31.16,1111122 
SCCF RECON,ioos:station:SCCF:11:1,2019-04-07T23:00:00Z,26.4679,-82.0631,1.7,31.15,1111122 
SCCF RECON,ioos:station:SCCF:11:1,2019-04-08T04:00:00Z,26.4679,-82.0631,1.65,31.91,1111122 
SCCF RECON,ioos:station:SCCF:11:1,2019-04-08T05:00:00Z,26.4679,-82.0631,1.808,31.76,1111122 
SCCF RECON,ioos:station:SCCF:11:1,2019-04-08T06:00:00Z,26.4679,-82.0631,1.89,32.01,1111122 
SCCF RECON,ioos:station:SCCF:11:1,2019-04-08T07:00:00Z,26.4679,-82.0631,1.949,32.21,1111122 
SCCF RECON,ioos:station:SCCF:11:1,2019-04-08T08:00:00Z,26.4679,-82.0631,1.96,32.39,1111122 
SCCF RECON,ioos:station:SCCF:11:1,2019-04-08T09:00:00Z,26.4679,-82.0631,1.94,32.42,1111122 
SCCF RECON,ioos:station:SCCF:11:1,2019-04-08T10:00:00Z,26.4679,-82.0631,1.901,32.58,1111122 
SCCF RECON,ioos:station:SCCF:11:1,2019-04-08T11:00:00Z,26.4679,-82.0631,1.798,31.75,1111122 
SCCF RECON,ioos:station:SCCF:11:1,2019-04-08T12:00:00Z,26.4679,-82.0631,1.72,31.48,1111122 
SCCF RECON,ioos:station:SCCF:11:1,2019-04-08T13:00:00Z,26.4679,-82.0631,1.684,31.29,1111122 
SCCF RECON,ioos:station:SCCF:11:1,2019-04-08T14:00:00Z,26.4679,-82.0631,1.728,31.56,1111122 
SCCF RECON,ioos:station:SCCF:11:1,2019-04-08T15:00:00Z,26.4679,-82.0631,1.814,33.35,1111122 
SCCF RECON,ioos:station:SCCF:11:1,2019-04-08T16:00:00Z,26.4679,-82.0631,1.918,33.6,1111122 
SCCF RECON,ioos:station:SCCF:11:1,2019-04-08T17:00:00Z,26.4679,-82.0631,2.001,33.66,1111122 
SCCF RECON,ioos:station:SCCF:11:1,2019-04-08T18:00:00Z,26.4679,-82.0631,2.078,33.64,1111122 
SCCF RECON,ioos:station:SCCF:11:1,2019-04-08T19:00:00Z,26.4679,-82.0631,2.119,33.84,1111122 
SCCF RECON,ioos:station:SCCF:11:1,2019-04-08T20:00:00Z,26.4679,-82.0631,2.131,33.93,1111122 
SCCF RECON,ioos:station:SCCF:11:1,2019-04-08T21:00:00Z,26.4679,-82.0631,2.07,33.86,1111122 
SCCF RECON,ioos:station:SCCF:11:1,2019-04-08T22:00:00Z,26.4679,-82.0631,1.939,32.34,1111122 
SCCF RECON,ioos:station:SCCF:11:1,2019-04-08T23:00:00Z,26.4679,-82.0631,1.793,32.27,1111122 
SCCF RECON,ioos:station:SCCF:11:1,2019-04-09T04:00:00Z,26.4679,-82.0631,1.489,32.07,1111122 
SCCF RECON,ioos:station:SCCF:11:1,2019-04-09T05:00:00Z,26.4679,-82.0631,1.639,33.63,1111122 
SCCF RECON,ioos:station:SCCF:11:1,2019-04-09T06:00:00Z,26.4679,-82.0631,1.76,33.62,1111122 
SCCF RECON,ioos:station:SCCF:11:1,2019-04-09T07:00:00Z,26.4679,-82.0631,1.843,33.79,1111122 
SCCF RECON,ioos:station:SCCF:11:1,2019-04-09T08:00:00Z,26.4679,-82.0631,1.905,33.7,1111122 
SCCF RECON,ioos:station:SCCF:11:1,2019-04-09T09:00:00Z,26.4679,-82.0631,1.917,33.62,1111122 
SCCF RECON,ioos:station:SCCF:11:1,2019-04-09T10:00:00Z,26.4679,-82.0631,1.87,33.67,1111122 
SCCF RECON,ioos:station:SCCF:11:1,2019-04-09T11:00:00Z,26.4679,-82.0631,1.82,33.57,1111122 
SCCF RECON,ioos:station:SCCF:11:1,2019-04-09T12:00:00Z,26.4679,-82.0631,1.789,33.27,1111122 
SCCF RECON,ioos:station:SCCF:11:1,2019-04-09T13:00:00Z,26.4679,-82.0631,1.72,32.61,1111122 
SCCF RECON,ioos:station:SCCF:11:1,2019-04-09T14:00:00Z,26.4679,-82.0631,1.69,33.0,1111122 
SCCF RECON,ioos:station:SCCF:11:1,2019-04-09T15:00:00Z,26.4679,-82.0631,1.722,33.94,1111122 
SCCF RECON,ioos:station:SCCF:11:1,2019-04-09T16:00:00Z,26.4679,-82.0631,1.816,33.95,1111122 
SCCF RECON,ioos:station:SCCF:11:1,2019-04-09T17:00:00Z,26.4679,-82.0631,1.91,33.97,1111122 
SCCF RECON,ioos:station:SCCF:11:1,2019-04-09T18:00:00Z,26.4679,-82.0631,1.99,33.99,1111122 
SCCF RECON,ioos:station:SCCF:11:1,2019-04-09T19:00:00Z,26.4679,-82.0631,2.07,34.0,1111122 
SCCF RECON,ioos:station:SCCF:11:1,2019-04-09T20:00:00Z,26.4679,-82.0631,2.077,34.0,1111122 
SCCF RECON,ioos:station:SCCF:11:1,2019-04-09T21:00:00Z,26.4679,-82.0631,2.101,34.02,1111122 
SCCF RECON,ioos:station:SCCF:11:1,2019-04-09T22:00:00Z,26.4679,-82.0631,2.071,34.01,1111122 
SCCF RECON,ioos:station:SCCF:11:1,2019-04-09T23:00:00Z,26.4679,-82.0631,1.91,33.08,1111122 
SCCF RECON,ioos:station:SCCF:11:1,2019-04-10T04:00:00Z,26.4679,-82.0631,1.457,32.5,1111122 
SCCF RECON,ioos:station:SCCF:11:1,2019-04-10T05:00:00Z,26.4679,-82.0631,1.549,33.0,1111122 
SCCF RECON,ioos:station:SCCF:11:1,2019-04-10T06:00:00Z,26.4679,-82.0631,1.65,33.87,1111122 
SCCF RECON,ioos:station:SCCF:11:1,2019-04-10T07:00:00Z,26.4679,-82.0631,1.73,33.93,1111122 
SCCF RECON,ioos:station:SCCF:11:1,2019-04-10T08:00:00Z,26.4679,-82.0631,1.8,33.93,1111122 
SCCF RECON,ioos:station:SCCF:11:1,2019-04-10T09:00:00Z,26.4679,-82.0631,1.88,33.89,1111122 
SCCF RECON,ioos:station:SCCF:11:1,2019-04-10T10:00:00Z,26.4679,-82.0631,1.891,33.83,1111122 
SCCF RECON,ioos:station:SCCF:11:1,2019-04-10T11:00:00Z,26.4679,-82.0631,1.87,33.84,1111122 
SCCF RECON,ioos:station:SCCF:11:1,2019-04-10T12:00:00Z,26.4679,-82.0631,1.811,33.53,1111122 
SCCF RECON,ioos:station:SCCF:11:1,2019-04-10T13:00:00Z,26.4679,-82.0631,1.742,32.97,1111122 
SCCF RECON,ioos:station:SCCF:11:1,2019-04-10T14:00:00Z,26.4679,-82.0631,1.693,32.88,1111122 
SCCF RECON,ioos:station:SCCF:11:1,2019-04-10T15:00:00Z,26.4679,-82.0631,1.699,32.92,1111122 
SCCF RECON,ioos:station:SCCF:11:1,2019-04-10T16:00:00Z,26.4679,-82.0631,1.74,33.08,1111122 
SCCF RECON,ioos:station:SCCF:11:1,2019-04-10T17:00:00Z,26.4679,-82.0631,1.84,33.18,1111122 
SCCF RECON,ioos:station:SCCF:11:1,2019-04-10T18:00:00Z,26.4679,-82.0631,1.91,33.35,1111122 
SCCF RECON,ioos:station:SCCF:11:1,2019-04-10T19:00:00Z,26.4679,-82.0631,1.981,33.51,1111122 
SCCF RECON,ioos:station:SCCF:11:1,2019-04-10T20:00:00Z,26.4679,-82.0631,2.04,33.64,1111122 
SCCF RECON,ioos:station:SCCF:11:1,2019-04-10T21:00:00Z,26.4679,-82.0631,2.0,33.55,1111122 
SCCF RECON,ioos:station:SCCF:11:1,2019-04-10T22:00:00Z,26.4679,-82.0631,1.931,33.21,1111122 
SCCF RECON,ioos:station:SCCF:11:1,2019-04-10T23:00:00Z,26.4679,-82.0631,1.837,32.99,1111122 
SCCF RECON,ioos:station:SCCF:11:1,2019-04-11T04:00:00Z,26.4679,-82.0631,1.298,32.56,1111122 
SCCF RECON,ioos:station:SCCF:11:1,2019-04-11T05:00:00Z,26.4679,-82.0631,1.299,32.43,1111122 
SCCF RECON,ioos:station:SCCF:11:1,2019-04-11T06:00:00Z,26.4679,-82.0631,1.381,32.8,1111122 
SCCF RECON,ioos:station:SCCF:11:1,2019-04-11T07:00:00Z,26.4679,-82.0631,1.51,33.13,1111122 
SCCF RECON,ioos:station:SCCF:11:1,2019-04-11T08:00:00Z,26.4679,-82.0631,1.621,32.4,1111122 
SCCF RECON,ioos:station:SCCF:11:1,2019-04-11T09:00:00Z,26.4679,-82.0631,1.715,32.84,1111122 
SCCF RECON,ioos:station:SCCF:11:1,2019-04-11T10:00:00Z,26.4679,-82.0631,1.79,33.07,1111122 
SCCF RECON,ioos:station:SCCF:11:1,2019-04-11T11:00:00Z,26.4679,-82.0631,1.829,33.22,1111122 
SCCF RECON,ioos:station:SCCF:11:1,2019-04-11T12:00:00Z,26.4679,-82.0631,1.815,33.2,1111122 
SCCF RECON,ioos:station:SCCF:11:1,2019-04-11T13:00:00Z,26.4679,-82.0631,1.783,33.02,1111122 
SCCF RECON,ioos:station:SCCF:11:1,2019-04-11T14:00:00Z,26.4679,-82.0631,1.762,32.89,1111122 
SCCF RECON,ioos:station:SCCF:11:1,2019-04-11T15:00:00Z,26.4679,-82.0631,1.78,32.99,1111122 
SCCF RECON,ioos:station:SCCF:11:1,2019-04-11T16:00:00Z,26.4679,-82.0631,1.819,32.9,1111122 
SCCF RECON,ioos:station:SCCF:11:1,2019-04-11T17:00:00Z,26.4679,-82.0631,1.86,32.81,1111122 
SCCF RECON,ioos:station:SCCF:11:1,2019-04-11T18:00:00Z,26.4679,-82.0631,1.909,32.73,1111122 
SCCF RECON,ioos:station:SCCF:11:1,2019-04-11T19:00:00Z,26.4679,-82.0631,1.971,32.78,1111122 
SCCF RECON,ioos:station:SCCF:11:1,2019-04-11T20:00:00Z,26.4679,-82.0631,2.02,32.92,1111122 
SCCF RECON,ioos:station:SCCF:11:1,2019-04-11T21:00:00Z,26.4679,-82.0631,2.051,33.45,1111122 
SCCF RECON,ioos:station:SCCF:11:1,2019-04-11T22:00:00Z,26.4679,-82.0631,2.059,33.65,1111122 
SCCF RECON,ioos:station:SCCF:11:1,2019-04-11T23:00:00Z,26.4679,-82.0631,2.0,33.02,1111122 
SCCF RECON,ioos:station:SCCF:11:1,2019-04-12T04:00:00Z,26.4679,-82.0631,1.456,32.7,1111122 
SCCF RECON,ioos:station:SCCF:11:1,2019-04-12T05:00:00Z,26.4679,-82.0631,1.389,32.65,1111122 
SCCF RECON,ioos:station:SCCF:11:1,2019-04-12T06:00:00Z,26.4679,-82.0631,1.36,32.58,1111122 
SCCF RECON,ioos:station:SCCF:11:1,2019-04-12T07:00:00Z,26.4679,-82.0631,1.408,32.64,1111122 
SCCF RECON,ioos:station:SCCF:11:1,2019-04-12T08:00:00Z,26.4679,-82.0631,1.53,32.82,1111122 
SCCF RECON,ioos:station:SCCF:11:1,2019-04-12T09:00:00Z,26.4679,-82.0631,1.639,32.06,1111122 
SCCF RECON,ioos:station:SCCF:11:1,2019-04-12T10:00:00Z,26.4679,-82.0631,1.72,32.16,1111122 
SCCF RECON,ioos:station:SCCF:11:1,2019-04-12T11:00:00Z,26.4679,-82.0631,1.787,32.49,1111122 
SCCF RECON,ioos:station:SCCF:11:1,2019-04-12T12:00:00Z,26.4679,-82.0631,1.843,32.72,1111122 
SCCF RECON,ioos:station:SCCF:11:1,2019-04-12T13:00:00Z,26.4679,-82.0631,1.86,32.67,1111122 
SCCF RECON,ioos:station:SCCF:11:1,2019-04-12T14:00:00Z,26.4679,-82.0631,1.86,32.41,1111122 
SCCF RECON,ioos:station:SCCF:11:1,2019-04-12T15:00:00Z,26.4679,-82.0631,1.86,32.42,1111122 
SCCF RECON,ioos:station:SCCF:11:1,2019-04-12T16:00:00Z,26.4679,-82.0631,1.86,32.61,1111122 
SCCF RECON,ioos:station:SCCF:11:1,2019-04-12T17:00:00Z,26.4679,-82.0631,1.851,32.69,1111122 
SCCF RECON,ioos:station:SCCF:11:1,2019-04-12T18:00:00Z,26.4679,-82.0631,1.829,32.76,1111122 
SCCF RECON,ioos:station:SCCF:11:1,2019-04-12T19:00:00Z,26.4679,-82.0631,1.87,32.73,1111122 
SCCF RECON,ioos:station:SCCF:11:1,2019-04-12T20:00:00Z,26.4679,-82.0631,1.95,33.18,1111122 
SCCF RECON,ioos:station:SCCF:11:1,2019-04-12T21:00:00Z,26.4679,-82.0631,2.003,33.85,1111122 
SCCF RECON,ioos:station:SCCF:11:1,2019-04-12T22:00:00Z,26.4679,-82.0631,2.029,34.05,1111122 
SCCF RECON,ioos:station:SCCF:11:1,2019-04-12T23:00:00Z,26.4679,-82.0631,2.04,34.14,1111122 
SCCF RECON,ioos:station:SCCF:11:1,2019-04-13T04:00:00Z,26.4679,-82.0631,1.609,32.77,1111122 
SCCF RECON,ioos:station:SCCF:11:1,2019-04-13T05:00:00Z,26.4679,-82.0631,1.488,32.74,1111122 
SCCF RECON,ioos:station:SCCF:11:1,2019-04-13T06:00:00Z,26.4679,-82.0631,1.39,32.78,1111122 
SCCF RECON,ioos:station:SCCF:11:1,2019-04-13T07:00:00Z,26.4679,-82.0631,1.335,32.76,1111122 
SCCF RECON,ioos:station:SCCF:11:1,2019-04-13T08:00:00Z,26.4679,-82.0631,1.38,32.78,1111122 
SCCF RECON,ioos:station:SCCF:11:1,2019-04-13T09:00:00Z,26.4679,-82.0631,1.497,32.83,1111122 
SCCF RECON,ioos:station:SCCF:11:1,2019-04-13T10:00:00Z,26.4679,-82.0631,1.625,32.78,1111122 
SCCF RECON,ioos:station:SCCF:11:1,2019-04-13T11:00:00Z,26.4679,-82.0631,1.723,32.41,1111122 
SCCF RECON,ioos:station:SCCF:11:1,2019-04-13T12:00:00Z,26.4679,-82.0631,1.819,32.78,1111122 
SCCF RECON,ioos:station:SCCF:11:1,2019-04-13T13:00:00Z,26.4679,-82.0631,1.889,32.89,1111122 
SCCF RECON,ioos:station:SCCF:11:1,2019-04-13T14:00:00Z,26.4679,-82.0631,1.926,32.86,1111122 
SCCF RECON,ioos:station:SCCF:11:1,2019-04-13T15:00:00Z,26.4679,-82.0631,1.95,33.51,1111122 
SCCF RECON,ioos:station:SCCF:11:1,2019-04-13T16:00:00Z,26.4679,-82.0631,1.94,33.89,1111122 
SCCF RECON,ioos:station:SCCF:11:1,2019-04-13T17:00:00Z,26.4679,-82.0631,1.9,33.87,1111122 
SCCF RECON,ioos:station:SCCF:11:1,2019-04-13T18:00:00Z,26.4679,-82.0631,1.85,33.39,1111122 
SCCF RECON,ioos:station:SCCF:11:1,2019-04-13T19:00:00Z,26.4679,-82.0631,1.84,33.52,1111122 
SCCF RECON,ioos:station:SCCF:11:1,2019-04-13T20:00:00Z,26.4679,-82.0631,1.858,34.09,1111122 
SCCF RECON,ioos:station:SCCF:11:1,2019-04-13T21:00:00Z,26.4679,-82.0631,1.906,34.49,1111122 
SCCF RECON,ioos:station:SCCF:11:1,2019-04-13T22:00:00Z,26.4679,-82.0631,1.968,34.52,1111122 